• In Hungary
  • List of Countries
  • For 7 days
  • Water Temperature
  • Satellite Maps
  • Weather Map
  • News
  • Weather Widgets
  • user-avatar
    Login

    Hourly Weather Yubileynyy

    Today, 24 June, Sunday

    Time Temperature Precipitation Wind Pressure Humidity
    00:00 +18°C° 0 mm 3 mps 732 mmHg 78%
    01:00 +17°C° 0 mm 3 mps 732 mmHg 81%
    02:00 +17°C° 0 mm 3 mps 732 mmHg 83%
    03:00 +16°C° 0 mm 3 mps 732 mmHg 85%
    04:00 +16°C° 0 mm 3 mps 733 mmHg 86%
    05:00 +17°C° 0 mm 3 mps 733 mmHg 80%
    06:00 +19°C° 0 mm 4 mps 733 mmHg 74%
    07:00 +20°C° 0 mm 4 mps 733 mmHg 67%
    08:00 +22°C° 0 mm 4 mps 734 mmHg 60%
    09:00 +23°C° 0 mm 5 mps 734 mmHg 53%
    10:00 +26°C° 0 mm 6 mps 733 mmHg 45%
    11:00 +26°C° 0 mm 5 mps 733 mmHg 45%
    12:00 +27°C° 0 mm 5 mps 734 mmHg 44%
    13:00 +27°C° 0 mm 5 mps 734 mmHg 44%
    14:00 +27°C° 0 mm 5 mps 734 mmHg 44%
    15:00 +27°C° 0 mm 5 mps 734 mmHg 44%
    16:00 +27°C° 0 mm 4 mps 734 mmHg 44%
    17:00 +26°C° 0 mm 4 mps 734 mmHg 48%
    18:00 +26°C° 0 mm 3 mps 735 mmHg 51%
    19:00 +25°C° 0 mm 2 mps 735 mmHg 55%
    20:00 +24°C° 0 mm 2 mps 735 mmHg 58%
    21:00 +21°C° 0 mm 2 mps 736 mmHg 61%
    22:00 +20°C° 0 mm 2 mps 736 mmHg 64%
    23:00 +19°C° 0 mm 2 mps 736 mmHg 66%

    Tomorrow, 25 June, Monday

    Time Temperature Precipitation Wind Pressure Humidity
    00:00 +19°C° 0 mm 2 mps 736 mmHg 68%
    01:00 +18°C° 0 mm 2 mps 737 mmHg 70%
    02:00 +18°C° 0 mm 2 mps 737 mmHg 73%
    03:00 +17°C° 0 mm 2 mps 737 mmHg 75%
    04:00 +17°C° 0 mm 2 mps 737 mmHg 78%
    05:00 +18°C° 0 mm 2 mps 738 mmHg 72%
    06:00 +20°C° 0 mm 3 mps 738 mmHg 67%
    07:00 +21°C° 0 mm 3 mps 738 mmHg 62%
    08:00 +24°C° 0 mm 3 mps 738 mmHg 54%
    09:00 +25°C° 0 mm 4 mps 738 mmHg 47%
    10:00 +27°C° 0 mm 4 mps 738 mmHg 40%
    11:00 +28°C° 0 mm 4 mps 738 mmHg 37%
    12:00 +28°C° 0 mm 4 mps 738 mmHg 34%
    13:00 +29°C° 0 mm 4 mps 738 mmHg 31%
    14:00 +29°C° 0 mm 4 mps 738 mmHg 30%
    15:00 +30°C° 0 mm 4 mps 738 mmHg 30%
    16:00 +30°C° 0 mm 4 mps 738 mmHg 29%
    17:00 +29°C° 0 mm 3 mps 738 mmHg 34%
    18:00 +28°C° 0 mm 3 mps 737 mmHg 38%
    19:00 +28°C° 0 mm 2 mps 737 mmHg 42%
    20:00 +26°C° 0 mm 2 mps 737 mmHg 47%
    21:00 +25°C° 0 mm 2 mps 737 mmHg 51%
    22:00 +23°C° 0 mm 2 mps 737 mmHg 56%
    23:00 +22°C° 0 mm 3 mps 737 mmHg 59%

    Day after tomorrow, 26 June, Tuesday

    Time Temperature Precipitation Wind Pressure Humidity
    00:00 +21°C° 0 mm 3 mps 737 mmHg 62%
    01:00 +20°C° 0 mm 3 mps 737 mmHg 65%
    02:00 +20°C° 0 mm 3 mps 736 mmHg 67%
    03:00 +20°C° 0 mm 3 mps 736 mmHg 68%
    04:00 +19°C° 0 mm 3 mps 736 mmHg 70%
    05:00 +20°C° 0 mm 4 mps 736 mmHg 67%
    06:00 +22°C° 0 mm 4 mps 736 mmHg 65%
    07:00 +23°C° 0 mm 5 mps 736 mmHg 63%
    08:00 +25°C° 0.2 mm 5 mps 736 mmHg 57%
    09:00 +27°C° 0.2 mm 6 mps 736 mmHg 51%
    10:00 +28°C° 0.2 mm 6 mps 736 mmHg 46%
    11:00 +28°C° 0 mm 6 mps 735 mmHg 44%
    12:00 +28°C° 0 mm 6 mps 735 mmHg 42%
    13:00 +28°C° 0 mm 6 mps 735 mmHg 40%
    14:00 +28°C° 0 mm 7 mps 735 mmHg 38%
    15:00 +28°C° 0 mm 7 mps 735 mmHg 36%
    16:00 +28°C° 0 mm 7 mps 735 mmHg 33%
    17:00 +27°C° 0 mm 6 mps 735 mmHg 39%
    18:00 +26°C° 0 mm 5 mps 735 mmHg 44%
    19:00 +25°C° 0 mm 4 mps 735 mmHg 50%
    20:00 +23°C° 0 mm 4 mps 735 mmHg 56%
    21:00 +21°C° 0 mm 4 mps 735 mmHg 62%
    22:00 +20°C° 0 mm 3 mps 735 mmHg 67%
    23:00 +19°C° 0 mm 3 mps 735 mmHg 71%

    27 June, Wednesday

    Time Temperature Precipitation Wind Pressure Humidity
    00:00 +18°C° 0 mm 3 mps 735 mmHg 74%
    01:00 +18°C° 0 mm 3 mps 735 mmHg 78%
    02:00 +17°C° 0 mm 3 mps 735 mmHg 80%
    03:00 +17°C° 0 mm 3 mps 734 mmHg 82%
    04:00 +17°C° 0 mm 3 mps 734 mmHg 83%
    05:00 +18°C° 0 mm 4 mps 734 mmHg 77%
    06:00 +20°C° 0 mm 5 mps 734 mmHg 70%
    07:00 +21°C° 0 mm 6 mps 734 mmHg 64%
    08:00 +23°C° 0 mm 6 mps 734 mmHg 59%
    09:00 +24°C° 0 mm 7 mps 733 mmHg 53%
    10:00 +27°C° 0 mm 7 mps 733 mmHg 48%
    11:00 +27°C° 0.2 mm 8 mps 733 mmHg 47%
    12:00 +28°C° 0.2 mm 8 mps 732 mmHg 47%
    13:00 +28°C° 0.2 mm 8 mps 732 mmHg 46%
    14:00 +28°C° 0.3 mm 9 mps 732 mmHg 48%
    15:00 +28°C° 0.3 mm 9 mps 732 mmHg 49%
    16:00 +27°C° 0.3 mm 9 mps 732 mmHg 51%
    17:00 +27°C° 0 mm 8 mps 732 mmHg 54%
    18:00 +26°C° 0 mm 7 mps 732 mmHg 57%
    19:00 +24°C° 0 mm 7 mps 732 mmHg 61%
    20:00 +23°C° 0 mm 6 mps 732 mmHg 66%
    21:00 +21°C° 0 mm 5 mps 733 mmHg 72%
    22:00 +20°C° 0 mm 5 mps 733 mmHg 77%
    23:00 +19°C° 0 mm 4 mps 733 mmHg 81%

    28 June, Thursday

    Time Temperature Precipitation Wind Pressure Humidity
    00:00 +19°C° 0 mm 4 mps 733 mmHg 85%
    01:00 +18°C° 0 mm 4 mps 733 mmHg 88%
    02:00 +18°C° 0 mm 3 mps 733 mmHg 90%
    03:00 +17°C° 0 mm 3 mps 733 mmHg 91%
    04:00 +17°C° 0 mm 3 mps 733 mmHg 93%
    05:00 +19°C° 0 mm 4 mps 733 mmHg 85%
    06:00 +21°C° 0 mm 4 mps 733 mmHg 77%
    07:00 +22°C° 0 mm 5 mps 733 mmHg 69%
    08:00 +25°C° 0 mm 5 mps 733 mmHg 60%
    09:00 +27°C° 0 mm 6 mps 733 mmHg 52%
    10:00 +29°C° 0 mm 7 mps 733 mmHg 43%
    11:00 +30°C° 0 mm 7 mps 733 mmHg 40%
    12:00 +32°C° 0 mm 7 mps 733 mmHg 37%
    13:00 +33°C° 0 mm 7 mps 732 mmHg 34%
    14:00 +33°C° 0 mm 7 mps 732 mmHg 35%
    15:00 +33°C° 0 mm 7 mps 732 mmHg 36%
    16:00 +33°C° 0 mm 7 mps 732 mmHg 37%
    17:00 +32°C° 0 mm 6 mps 732 mmHg 41%
    18:00 +30°C° 0 mm 5 mps 732 mmHg 45%
    19:00 +29°C° 0 mm 4 mps 733 mmHg 49%
    20:00 +27°C° 0.1 mm 4 mps 733 mmHg 56%
    21:00 +25°C° 0.1 mm 4 mps 733 mmHg 63%
    22:00 +23°C° 0.1 mm 4 mps 733 mmHg 70%
    23:00 +22°C° 0 mm 4 mps 733 mmHg 73%

    29 June, Friday

    Time Temperature Precipitation Wind Pressure Humidity
    00:00 +21°C° 0 mm 4 mps 733 mmHg 77%
    01:00 +20°C° 0 mm 3 mps 733 mmHg 81%
    02:00 +20°C° 0 mm 4 mps 733 mmHg 81%
    03:00 +20°C° 0 mm 4 mps 733 mmHg 81%
    04:00 +19°C° 0 mm 4 mps 733 mmHg 82%
    05:00 +20°C° 0 mm 5 mps 733 mmHg 76%
    06:00 +21°C° 0 mm 6 mps 734 mmHg 71%
    07:00 +23°C° 0 mm 7 mps 734 mmHg 66%
    08:00 +24°C° 0 mm 8 mps 734 mmHg 60%
    09:00 +26°C° 0 mm 8 mps 734 mmHg 54%
    10:00 +27°C° 0 mm 8 mps 735 mmHg 48%
    11:00 +28°C° 0 mm 8 mps 735 mmHg 45%
    12:00 +28°C° 0 mm 8 mps 735 mmHg 43%
    13:00 +29°C° 0 mm 8 mps 735 mmHg 40%
    14:00 +29°C° 0 mm 8 mps 735 mmHg 40%
    15:00 +28°C° 0 mm 8 mps 735 mmHg 41%
    16:00 +28°C° 0 mm 8 mps 735 mmHg 41%
    17:00 +28°C° 0 mm 7 mps 736 mmHg 45%
    18:00 +27°C° 0 mm 6 mps 736 mmHg 48%
    19:00 +26°C° 0 mm 5 mps 736 mmHg 52%
    20:00 +23°C° 0 mm 4 mps 736 mmHg 58%
    21:00 +22°C° 0 mm 4 mps 737 mmHg 63%
    22:00 +20°C° 0 mm 4 mps 737 mmHg 69%
    23:00 +20°C° 0 mm 4 mps 737 mmHg 73%
    Show more